SJV743 WAMG-WAAA

Flight info

Callsign SJV743
Flight time 1h 18m
Altitude 36000
Route ENTEG W32 VENRU
Aircraft A320/M-SDE3FGHIRWY/LB1

Departure

Time 2026-05-05 13:01
Airport Jalaluddin Airport (WAMG)

Arrival

Time 2026-05-05 14:20
Airport Sultan Hasanuddin International Airport (WAAA)
Time Latitude Longitude Altitude Speed Heading
2026-05-05 12:40 0.64024 122.84471 121 ft 0 kts
2026-05-05 12:53 0.64022 122.84471 123 ft 1 kts
2026-05-05 12:54 0.63989 122.84466 123 ft 2 kts
2026-05-05 12:54 0.63970 122.84466 121 ft 3 kts 338°
2026-05-05 12:54 0.63954 122.84476 121 ft 3 kts 305°
2026-05-05 12:55 0.63945 122.84494 117 ft 3 kts 283°
2026-05-05 12:55 0.63943 122.84505 118 ft 1 kts 277°
2026-05-05 12:55 0.63943 122.84507 118 ft 0 kts 277°
2026-05-05 12:57 0.63946 122.84481 118 ft 10 kts 277°
2026-05-05 12:57 0.63954 122.84414 120 ft 8 kts 277°
2026-05-05 12:58 0.63933 122.84349 117 ft 13 kts 205°
2026-05-05 12:58 0.63834 122.84333 120 ft 12 kts 187°
2026-05-05 12:58 0.63784 122.84398 122 ft 17 kts 96°
2026-05-05 12:58 0.63764 122.84558 118 ft 29 kts 97°
2026-05-05 12:59 0.63733 122.84794 116 ft 39 kts 97°
2026-05-05 12:59 0.63699 122.85061 113 ft 36 kts 97°
2026-05-05 12:59 0.63669 122.85294 115 ft 32 kts 97°
2026-05-05 13:00 0.63611 122.85742 122 ft 29 kts 97°
2026-05-05 13:00 0.63591 122.85915 129 ft 18 kts 88°
2026-05-05 13:01 0.63587 122.85939 122 ft 12 kts 276°
2026-05-05 13:01 0.63635 122.85561 119 ft 103 kts 277°
2026-05-05 13:01 0.63762 122.84607 262 ft 158 kts 278°
2026-05-05 13:01 0.63938 122.83526 1186 ft 157 kts 278°
2026-05-05 13:02 0.64066 122.82439 2087 ft 160 kts 276°
2026-05-05 13:02 0.64181 122.81275 2621 ft 179 kts 275°
2026-05-05 13:02 0.64309 122.79960 3046 ft 201 kts 274°
2026-05-05 13:02 0.64177 122.78486 3462 ft 226 kts 255°
2026-05-05 13:03 0.63494 122.76983 4022 ft 253 kts 235°
2026-05-05 13:03 0.62191 122.75706 4906 ft 271 kts 212°
2026-05-05 13:03 0.60429 122.74996 6089 ft 278 kts 190°
2026-05-05 13:03 0.58492 122.75034 7301 ft 283 kts 166°
2026-05-05 13:04 0.56704 122.75877 8446 ft 290 kts 142°
2026-05-05 13:04 0.55350 122.77365 9539 ft 296 kts 127°
2026-05-05 13:04 0.54069 122.79011 10476 ft 309 kts 132°
2026-05-05 13:04 0.52378 122.80464 10953 ft 334 kts 142°
2026-05-05 13:05 0.50485 122.81948 11473 ft 354 kts 142°
2026-05-05 13:05 0.48503 122.83456 12290 ft 359 kts 147°
2026-05-05 13:05 0.46370 122.84635 12543 ft 340 kts 155°
2026-05-05 13:05 0.44271 122.85574 12666 ft 324 kts 158°
2026-05-05 13:06 0.42106 122.86350 12818 ft 342 kts 165°
2026-05-05 13:06 0.39702 122.86829 12966 ft 363 kts 172°
2026-05-05 13:06 0.37163 122.87190 13396 ft 372 kts 173°
2026-05-05 13:06 0.34579 122.87503 13968 ft 376 kts 174°
2026-05-05 13:07 0.31956 122.87790 14561 ft 382 kts 174°
2026-05-05 13:07 0.29306 122.88074 15174 ft 384 kts 173°
2026-05-05 13:07 0.26640 122.88362 15721 ft 387 kts 173°
2026-05-05 13:07 0.23957 122.88653 16230 ft 390 kts 173°
2026-05-05 13:08 0.21246 122.88955 16736 ft 394 kts 173°
2026-05-05 13:08 0.18546 122.89260 17247 ft 398 kts 173°
2026-05-05 13:08 0.15775 122.89579 17789 ft 402 kts 172°
2026-05-05 13:08 0.12993 122.89901 18286 ft 404 kts 173°
2026-05-05 13:09 0.10188 122.90202 18763 ft 408 kts 173°
2026-05-05 13:09 0.07354 122.90487 19253 ft 410 kts 173°
2026-05-05 13:09 0.04500 122.90764 19751 ft 414 kts 174°
2026-05-05 13:09 0.01632 122.91035 20236 ft 416 kts 173°
2026-05-05 13:10 -0.01259 122.91309 20695 ft 417 kts 173°
2026-05-05 13:10 -0.04157 122.91592 21109 ft 419 kts 173°
2026-05-05 13:10 -0.07072 122.91882 21481 ft 422 kts 173°
2026-05-05 13:10 -0.09998 122.92176 21833 ft 425 kts 173°
2026-05-05 13:11 -0.12946 122.92472 22214 ft 427 kts 173°
2026-05-05 13:11 -0.15915 122.92769 22643 ft 430 kts 173°
2026-05-05 13:11 -0.18909 122.92953 23045 ft 434 kts 181°
2026-05-05 13:11 -0.21890 122.92424 23438 ft 439 kts 197°
2026-05-05 13:12 -0.24639 122.91095 23815 ft 443 kts 210°
2026-05-05 13:12 -0.27270 122.89464 24176 ft 445 kts 211°
2026-05-05 13:12 -0.29898 122.87811 24553 ft 448 kts 211°
2026-05-05 13:12 -0.32534 122.86141 24923 ft 450 kts 211°
2026-05-05 13:13 -0.35185 122.84459 25269 ft 452 kts 211°
2026-05-05 13:13 -0.37844 122.82777 25619 ft 454 kts 211°
2026-05-05 13:13 -0.40524 122.81090 25977 ft 456 kts 211°
2026-05-05 13:13 -0.43219 122.79399 26315 ft 458 kts 211°
2026-05-05 13:14 -0.45930 122.77701 26662 ft 460 kts 211°
2026-05-05 13:14 -0.48647 122.76001 26994 ft 463 kts 211°
2026-05-05 13:14 -0.51383 122.74287 27316 ft 465 kts 211°
2026-05-05 13:14 -0.54135 122.72565 27635 ft 467 kts 210°
2026-05-05 13:15 -0.56857 122.70861 27944 ft 468 kts 210°
2026-05-05 13:15 -0.59623 122.69126 28234 ft 470 kts 210°
2026-05-05 13:15 -0.62399 122.67386 28586 ft 471 kts 210°
2026-05-05 13:15 -0.65167 122.65647 29019 ft 469 kts 210°
2026-05-05 13:16 -0.67926 122.63915 29433 ft 468 kts 210°
2026-05-05 13:16 -0.70679 122.62185 29855 ft 467 kts 210°
2026-05-05 13:16 -0.73426 122.60456 30296 ft 466 kts 210°
2026-05-05 13:16 -0.76169 122.58731 30736 ft 465 kts 210°
2026-05-05 13:17 -0.78905 122.57015 31166 ft 464 kts 210°
2026-05-05 13:17 -0.80712 122.55884 31444 ft 463 kts 210°
2026-05-05 13:17 -0.83441 122.54175 31867 ft 462 kts 210°
2026-05-05 13:17 -0.86161 122.52471 32294 ft 461 kts 210°
2026-05-05 13:18 -0.88874 122.50768 32719 ft 460 kts 210°
2026-05-05 13:18 -0.91580 122.49068 33154 ft 459 kts 210°
2026-05-05 13:18 -0.94281 122.47371 33572 ft 458 kts 211°
2026-05-05 13:18 -0.96978 122.45675 33968 ft 457 kts 211°
2026-05-05 13:19 -0.99664 122.43985 34369 ft 456 kts 211°
2026-05-05 13:19 -1.02349 122.42296 34768 ft 455 kts 211°
2026-05-05 13:19 -1.05026 122.40615 35166 ft 454 kts 211°
2026-05-05 13:19 -1.07700 122.38936 35550 ft 453 kts 211°
2026-05-05 13:20 -1.10370 122.37262 35850 ft 453 kts 211°
2026-05-05 13:20 -1.13009 122.35607 35937 ft 456 kts 211°
2026-05-05 13:20 -1.18410 122.32215 35942 ft 460 kts 211°
2026-05-05 13:21 -1.23840 122.28813 35943 ft 460 kts 211°
2026-05-05 13:21 -1.29271 122.25410 35937 ft 461 kts 211°
2026-05-05 13:22 -1.34699 122.22003 35935 ft 461 kts 211°
2026-05-05 13:22 -1.40121 122.18591 35934 ft 461 kts 211°
2026-05-05 13:23 -1.45555 122.15173 35938 ft 461 kts 211°
2026-05-05 13:23 -1.50990 122.11764 35938 ft 461 kts 211°
2026-05-05 13:24 -1.56391 122.08377 35941 ft 461 kts 211°
2026-05-05 13:24 -1.61835 122.04958 35943 ft 461 kts 211°
2026-05-05 13:25 -1.67272 122.01543 35943 ft 461 kts 211°
2026-05-05 13:25 -1.72712 121.98121 35944 ft 462 kts 211°
2026-05-05 13:26 -1.78116 121.94719 35940 ft 461 kts 211°
2026-05-05 13:26 -1.83550 121.91306 35940 ft 461 kts 211°
2026-05-05 13:27 -1.88986 121.87906 35941 ft 461 kts 211°
2026-05-05 13:27 -1.94422 121.84494 35939 ft 462 kts 211°
2026-05-05 13:28 -1.99864 121.81068 35938 ft 462 kts 211°
2026-05-05 13:28 -2.05303 121.77642 35938 ft 462 kts 211°
2026-05-05 13:29 -2.10749 121.74220 35941 ft 462 kts 211°
2026-05-05 13:29 -2.16156 121.70824 35939 ft 462 kts 211°
2026-05-05 13:30 -2.21633 121.67384 35937 ft 462 kts 211°
2026-05-05 13:30 -2.27078 121.63958 35936 ft 462 kts 211°
2026-05-05 13:31 -2.32484 121.60558 35937 ft 462 kts 211°
2026-05-05 13:31 -2.37934 121.57134 35936 ft 462 kts 211°
2026-05-05 13:32 -2.43381 121.53713 35936 ft 462 kts 211°
2026-05-05 13:32 -2.48826 121.50290 35936 ft 462 kts 211°
2026-05-05 13:33 -2.54274 121.46872 35935 ft 462 kts 211°
2026-05-05 13:33 -2.59721 121.43449 35933 ft 462 kts 211°
2026-05-05 13:34 -2.65167 121.40018 35934 ft 463 kts 211°
2026-05-05 13:34 -2.70617 121.36584 35929 ft 463 kts 211°
2026-05-05 13:35 -2.76061 121.33144 35930 ft 463 kts 211°
2026-05-05 13:35 -2.81516 121.29706 35931 ft 463 kts 211°
2026-05-05 13:36 -2.86946 121.26304 35932 ft 463 kts 211°
2026-05-05 13:36 -2.92408 121.22870 35936 ft 464 kts 211°
2026-05-05 13:37 -2.97863 121.19431 35932 ft 464 kts 211°
2026-05-05 13:37 -3.03328 121.15992 35934 ft 464 kts 211°
2026-05-05 13:38 -3.08806 121.12571 35933 ft 464 kts 208°
2026-05-05 13:38 -3.14759 121.10128 35929 ft 463 kts 198°
2026-05-05 13:39 -3.20841 121.08007 35930 ft 463 kts 198°
2026-05-05 13:39 -3.26923 121.05882 35938 ft 463 kts 198°
2026-05-05 13:40 -3.33014 121.03742 35934 ft 464 kts 199°
2026-05-05 13:40 -3.39063 121.01616 35936 ft 464 kts 198°
2026-05-05 13:41 -3.45161 120.99482 35936 ft 463 kts 198°
2026-05-05 13:41 -3.51251 120.97348 35935 ft 463 kts 198°
2026-05-05 13:42 -3.57335 120.95209 35933 ft 464 kts 199°
2026-05-05 13:42 -3.63439 120.93066 35938 ft 464 kts 199°
2026-05-05 13:43 -3.69533 120.90929 35933 ft 464 kts 199°
2026-05-05 13:43 -3.75624 120.88805 35930 ft 463 kts 198°
2026-05-05 13:44 -3.81674 120.86694 35933 ft 463 kts 199°
2026-05-05 13:44 -3.87762 120.84554 35924 ft 463 kts 199°
2026-05-05 13:45 -3.93850 120.82417 35924 ft 464 kts 199°
2026-05-05 13:45 -3.99945 120.80276 35925 ft 464 kts 199°
2026-05-05 13:46 -4.06041 120.78134 35927 ft 464 kts 199°
2026-05-05 13:46 -4.12142 120.75995 35930 ft 465 kts 199°
2026-05-05 13:47 -4.18247 120.73854 35928 ft 464 kts 199°
2026-05-05 13:47 -4.24305 120.71719 35926 ft 465 kts 199°
2026-05-05 13:48 -4.30412 120.69582 35929 ft 465 kts 199°
2026-05-05 13:48 -4.36519 120.67440 35931 ft 465 kts 199°
2026-05-05 13:49 -4.42630 120.65294 35931 ft 465 kts 199°
2026-05-05 13:49 -4.48727 120.63152 35929 ft 464 kts 199°
2026-05-05 13:50 -4.54830 120.61003 35931 ft 465 kts 199°
2026-05-05 13:50 -4.60933 120.58856 35938 ft 465 kts 199°
2026-05-05 13:51 -4.67044 120.56714 35935 ft 465 kts 199°
2026-05-05 13:51 -4.73146 120.54573 35729 ft 465 kts 199°
2026-05-05 13:52 -4.76199 120.53496 35479 ft 464 kts 199°
2026-05-05 13:52 -4.79211 120.52432 35127 ft 465 kts 199°
2026-05-05 13:52 -4.82288 120.51347 34257 ft 472 kts 199°
2026-05-05 13:52 -4.85403 120.50252 33357 ft 478 kts 199°
2026-05-05 13:53 -4.88578 120.49140 32345 ft 486 kts 198°
2026-05-05 13:53 -4.91784 120.48016 31566 ft 488 kts 198°
2026-05-05 13:53 -4.94980 120.46896 30830 ft 487 kts 198°
2026-05-05 13:53 -4.98195 120.45765 29939 ft 490 kts 198°
2026-05-05 13:54 -5.01410 120.44632 29021 ft 491 kts 198°
2026-05-05 13:54 -5.04650 120.43489 28056 ft 494 kts 198°
2026-05-05 13:54 -5.07890 120.42348 27276 ft 491 kts 199°
2026-05-05 13:54 -5.10941 120.40907 26418 ft 491 kts 211°
2026-05-05 13:55 -5.13578 120.38750 25665 ft 490 kts 225°
2026-05-05 13:55 -5.15611 120.36022 24927 ft 487 kts 240°
2026-05-05 13:55 -5.16896 120.32902 24189 ft 484 kts 254°
2026-05-05 13:55 -5.17397 120.29583 23453 ft 481 kts 267°
2026-05-05 13:56 -5.17503 120.26246 22698 ft 476 kts 268°
2026-05-05 13:56 -5.17601 120.22945 21994 ft 471 kts 268°
2026-05-05 13:56 -5.17703 120.19686 21298 ft 465 kts 268°
2026-05-05 13:56 -5.17807 120.16462 20609 ft 460 kts 268°
2026-05-05 13:57 -5.17910 120.13281 19920 ft 453 kts 268°
2026-05-05 13:57 -5.18012 120.10141 19230 ft 448 kts 268°
2026-05-05 13:57 -5.18110 120.07034 18543 ft 442 kts 268°
2026-05-05 13:57 -5.18205 120.03970 17878 ft 437 kts 268°
2026-05-05 13:58 -5.18304 120.00941 17211 ft 432 kts 268°
2026-05-05 13:58 -5.18404 119.97949 16553 ft 427 kts 268°
2026-05-05 13:58 -5.18504 119.94981 15891 ft 423 kts 268°
2026-05-05 13:58 -5.18601 119.92043 15263 ft 421 kts 268°
2026-05-05 13:59 -5.18797 119.86239 14017 ft 412 kts 268°
2026-05-05 13:59 -5.19068 119.83401 13374 ft 407 kts 258°
2026-05-05 14:00 -5.21334 119.78330 11704 ft 400 kts 231°
2026-05-05 14:00 -5.22555 119.76955 11386 ft 394 kts 226°
2026-05-05 14:00 -5.24963 119.74369 11213 ft 371 kts 226°
2026-05-05 14:00 -5.26667 119.72495 11080 ft 356 kts 227°
2026-05-05 14:01 -5.28300 119.70683 10953 ft 344 kts 227°
2026-05-05 14:01 -5.29876 119.68929 10824 ft 333 kts 227°
2026-05-05 14:01 -5.31405 119.67233 10700 ft 323 kts 227°
2026-05-05 14:01 -5.32891 119.65588 10550 ft 314 kts 226°
2026-05-05 14:02 -5.34356 119.63973 10279 ft 312 kts 226°
2026-05-05 14:02 -5.35815 119.62364 9845 ft 313 kts 227°
2026-05-05 14:02 -5.36996 119.60478 8983 ft 327 kts 251°
2026-05-05 14:02 -5.37256 119.58219 8124 ft 330 kts 278°
2026-05-05 14:03 -5.36520 119.56078 7562 ft 320 kts 300°
2026-05-05 14:03 -5.35468 119.54149 7109 ft 310 kts 300°
2026-05-05 14:03 -5.34448 119.52279 6671 ft 301 kts 300°
2026-05-05 14:03 -5.33457 119.50461 6249 ft 294 kts 300°
2026-05-05 14:04 -5.32486 119.48687 5836 ft 286 kts 300°
2026-05-05 14:04 -5.31543 119.46961 5431 ft 280 kts 300°
2026-05-05 14:04 -5.30607 119.45270 5025 ft 273 kts 304°
2026-05-05 14:04 -5.29277 119.43993 4508 ft 266 kts 338°
2026-05-05 14:05 -5.27496 119.43743 4092 ft 254 kts 15°
2026-05-05 14:05 -5.26014 119.44517 3811 ft 234 kts 42°
2026-05-05 14:05 -5.24724 119.45454 3511 ft 225 kts 35°
2026-05-05 14:05 -5.23825 119.45991 3311 ft 220 kts 33°
2026-05-05 14:06 -5.22115 119.46973 2945 ft 206 kts 33°
2026-05-05 14:06 -5.21303 119.47440 2778 ft 201 kts 33°
2026-05-05 14:06 -5.20099 119.48133 2491 ft 196 kts 33°
2026-05-05 14:06 -5.18941 119.48800 2232 ft 187 kts 32°
2026-05-05 14:07 -5.17854 119.49427 1996 ft 174 kts 32°
2026-05-05 14:07 -5.16862 119.49998 1792 ft 156 kts 32°
2026-05-05 14:07 -5.15946 119.50527 1579 ft 149 kts 32°
2026-05-05 14:07 -5.15059 119.51039 1382 ft 146 kts 31°
2026-05-05 14:08 -5.14185 119.51543 1192 ft 145 kts 31°
2026-05-05 14:08 -5.13313 119.52046 1000 ft 144 kts 31°
2026-05-05 14:08 -5.12447 119.52546 810 ft 144 kts 30°
2026-05-05 14:08 -5.11582 119.53045 624 ft 143 kts 31°
2026-05-05 14:09 -5.10722 119.53541 421 ft 142 kts 31°
2026-05-05 14:09 -5.09866 119.54039 229 ft 142 kts 30°
2026-05-05 14:09 -5.09017 119.54524 46 ft 136 kts 28°
2026-05-05 14:09 -5.08286 119.54953 46 ft 124 kts 31°
2026-05-05 14:10 -5.07444 119.55475 463 ft 156 kts 31°
2026-05-05 14:10 -5.06426 119.56065 1147 ft 181 kts 30°
2026-05-05 14:10 -5.05257 119.56729 1940 ft 206 kts 30°
2026-05-05 14:10 -5.03936 119.57359 2636 ft 217 kts 15°
2026-05-05 14:11 -5.02432 119.57630 3374 ft 221 kts 12°
2026-05-05 14:11 -5.00885 119.57844 3865 ft 228 kts
2026-05-05 14:11 -4.99311 119.57455 3981 ft 258 kts 331°
2026-05-05 14:11 -4.98026 119.56115 4008 ft 279 kts 296°
2026-05-05 14:12 -4.97689 119.54219 4009 ft 280 kts 260°
2026-05-05 14:12 -4.98458 119.52465 4012 ft 277 kts 225°
2026-05-05 14:12 -5.00039 119.51432 4008 ft 272 kts 198°
2026-05-05 14:12 -5.01825 119.50781 4012 ft 273 kts 197°
2026-05-05 14:13 -5.03613 119.50137 4009 ft 273 kts 196°
2026-05-05 14:13 -5.05423 119.49567 4000 ft 272 kts 194°
2026-05-05 14:13 -5.07244 119.49044 4017 ft 273 kts 195°
2026-05-05 14:13 -5.08969 119.48236 4018 ft 275 kts 207°
2026-05-05 14:14 -5.10623 119.47274 4017 ft 275 kts 208°
2026-05-05 14:14 -5.12270 119.46296 4016 ft 275 kts 208°
2026-05-05 14:14 -5.13916 119.45316 4016 ft 274 kts 208°
2026-05-05 14:14 -5.15515 119.44357 4008 ft 262 kts 208°
2026-05-05 14:15 -5.17037 119.43438 4017 ft 248 kts 208°
2026-05-05 14:15 -5.18578 119.42796 3748 ft 238 kts 187°
2026-05-05 14:15 -5.20208 119.42846 3206 ft 232 kts 161°
2026-05-05 14:15 -5.21590 119.43545 2997 ft 214 kts 139°
2026-05-05 14:16 -5.22486 119.44639 2887 ft 198 kts 110°
2026-05-05 14:16 -5.22582 119.45965 2819 ft 189 kts 76°
2026-05-05 14:16 -5.21929 119.47041 2634 ft 185 kts 42°
2026-05-05 14:16 -5.20852 119.47704 2477 ft 175 kts 32°
2026-05-05 14:17 -5.19835 119.48284 2401 ft 157 kts 32°
2026-05-05 14:17 -5.18917 119.48816 2297 ft 154 kts 33°
2026-05-05 14:17 -5.17958 119.49372 2375 ft 167 kts 32°
2026-05-05 14:17 -5.16933 119.49961 2045 ft 167 kts 32°
2026-05-05 14:18 -5.15957 119.50522 1661 ft 156 kts 32°
2026-05-05 14:18 -5.15046 119.51047 1414 ft 148 kts 31°
2026-05-05 14:18 -5.14166 119.51555 1197 ft 145 kts 30°
2026-05-05 14:18 -5.13297 119.52056 999 ft 144 kts 30°
2026-05-05 14:19 -5.12433 119.52554 807 ft 143 kts 31°
2026-05-05 14:19 -5.11571 119.53051 616 ft 142 kts 30°
2026-05-05 14:19 -5.10713 119.53546 423 ft 142 kts 31°
2026-05-05 14:19 -5.09865 119.54047 217 ft 141 kts 29°
2026-05-05 14:20 -5.09013 119.54533 52 ft 137 kts 30°
2026-05-05 14:20 -5.08287 119.54949 37 ft 99 kts 30°
2026-05-05 14:20 -5.07925 119.55156 39 ft 41 kts 30°
2026-05-05 14:20 -5.07759 119.55243 40 ft 20 kts 12°
2026-05-05 14:21 -5.07683 119.55195 41 ft 12 kts 302°
2026-05-05 14:21 -5.07670 119.55114 41 ft 10 kts 245°
2026-05-05 14:21 -5.07727 119.55066 41 ft 11 kts 210°
2026-05-05 14:21 -5.07801 119.55023 41 ft 14 kts 210°
2026-05-05 14:22 -5.07893 119.54970 41 ft 17 kts 210°
2026-05-05 14:22 -5.08004 119.54906 41 ft 20 kts 210°
2026-05-05 14:22 -5.08133 119.54832 41 ft 23 kts 210°
2026-05-05 14:22 -5.08276 119.54749 41 ft 25 kts 210°
2026-05-05 14:23 -5.08381 119.54689 41 ft 18 kts 210°
2026-05-05 14:23 -5.08492 119.54625 41 ft 13 kts 210°
2026-05-05 14:23 -5.08564 119.54574 41 ft 13 kts 235°
2026-05-05 14:23 -5.08547 119.54487 40 ft 14 kts 300°
2026-05-05 14:24 -5.08515 119.54431 41 ft 7 kts 300°
2026-05-05 14:24 -5.08478 119.54408 39 ft 7 kts
2026-05-05 14:24 -5.08445 119.54411 41 ft 4 kts 337°
2026-05-05 14:24 -5.08425 119.54387 39 ft 5 kts 300°
2026-05-05 14:25 -5.08414 119.54368 41 ft 3 kts 300°
2026-05-05 14:25 -5.08409 119.54359 39 ft 0 kts 299°